Hourly Data Report for September 13, 2017

All times are specified in Local Standard Time (LST). Add 1 hour to adjust for Daylight Saving Time where and when it is observed.

MONCTON INTL A
NEW BRUNSWICK

46°06'44.000" N
64°40'43.000" W
70.70 m
8103201
71705
YQM

Download Data

Hourly Data (September 2017)
Hourly Data Report for September 13, 2017
Temp Definition
°C
Dew Point Temp Definition
°C
Rel Hum Definition
%
Wind Dir Definition
10's deg

Wind Spd Definition
km/h
Visibility Definition
km
Stn Press Definition
kPa
Hmdx Definition


Wind Chill Definition


Weather Definition


TIME
00:00 Legend Double Dagger 12.0 11.0 94 25 8 24.1 99.68     LegendNANA
01:00 Legend Double Dagger 11.9 10.8 93 24 12 24.1 99.70     LegendNANA
02:00 Legend Double Dagger 11.2 10.6 96 22 13 24.1 99.70     Clear
03:00 Legend Double Dagger 11.4 10.5 94 23 13 24.1 99.73     LegendNANA
04:00 Legend Double Dagger 12.1 10.9 92 26 7 24.1 99.71     LegendNANA
05:00 Legend Double Dagger 10.8 10.2 96 23 15 24.1 99.74     Clear
06:00 Legend Double Dagger 11.1 10.2 94 22 18 24.1 99.80     LegendNANA
07:00 Legend Double Dagger 12.2 10.9 91 23 17 24.1 99.87     LegendNANA
08:00 Legend Double Dagger 13.5 11.6 88 23 16 24.1 99.88     Clear
09:00 Legend Double Dagger 16.2 12.8 80 22 22 24.1 99.89     LegendNANA
10:00 Legend Double Dagger 19.4 13.6 69 24 17 24.1 99.87     LegendNANA
11:00 Legend Double Dagger 21.6 14.4 63 23 16 24.1 99.84 25   Clear
12:00 Legend Double Dagger 24.0 13.9 53 26 13 24.1 99.80 27   LegendNANA
13:00 Legend Double Dagger 25.2 13.3 47 24 23 24.1 99.76 28   LegendNANA
14:00 Legend Double Dagger 25.6 13.5 46 23 17 24.1 99.72 29   Mainly Clear
15:00 Legend Double Dagger 26.2 12.4 42 23 24 24.1 99.71 29   LegendNANA
16:00 Legend Double Dagger 26.1 11.1 38 24 27 24.1 99.71 28   LegendNANA
17:00 Legend Double Dagger 25.0 12.2 44 23 23 24.1 99.72 27   Mainly Clear
18:00 Legend Double Dagger 22.9 12.1 50 23 17 24.1 99.74 25   LegendNANA
19:00 Legend Double Dagger 20.1 11.4 57 21 13 24.1 99.78     LegendNANA
20:00 Legend Double Dagger 18.4 10.7 60 21 15 24.1 99.81     Mainly Clear
21:00 Legend Double Dagger 17.9 12.1 69 21 17 24.1 99.83     LegendNANA
22:00 Legend Double Dagger 16.6 12.6 77 23 16 24.1 99.84     LegendNANA
23:00 Legend Double Dagger 15.5 12.4 82 22 14 24.1 99.82     Clear

Notes on Data Quality.

Legend

  • E = Estimated
  • M = Missing
  • NA = Not Available
  • ‡ = Partner data that is not subject to review by the National Climate Archives
Date modified: